FW4487 Weather Reports


time (UTC)temp
C
wind
direction
speed
KPH
gust
KPH
rain 1hr
cm
rain 24hr
cm
rain mn
cm
humidity
%
barometer
mb
20210615223702 15 136 0.0 3.2 0.00 0.00 0.00 87 1019.8
20210615223203 15 136 0.0 3.2 0.00 0.00 0.00 86 1019.9
20210615220703 15 136 0.0 0.0 0.00 0.00 0.00 87 1019.8
20210615220202 16 136 0.0 0.0 0.00 0.00 0.00 87 1019.9
20210615213703 16 136 0.0 3.2 0.00 0.00 0.00 86 1019.6
20210615213202 15 136 0.0 8.0 0.00 0.00 0.00 86 1019.6
20210615210703 15 136 1.6 3.2 0.00 0.00 0.00 89 1019.4
20210615210203 15 136 0.0 3.2 0.00 0.00 0.00 90 1019.3
20210615203703 15 136 0.0 1.6 0.00 0.00 0.00 89 1019.1
20210615203204 16 136 0.0 1.6 0.00 0.00 0.00 88 1019.2
20210615200703 16 136 0.0 3.2 0.00 0.00 0.00 86 1019.0
20210615200203 16 136 0.0 3.2 0.00 0.00 0.00 86 1019.1
20210615193703 16 136 0.0 3.2 0.00 0.00 0.00 82 1018.8
20210615193203 16 136 1.6 4.8 0.00 0.00 0.00 81 1018.7
20210615190703 17 136 1.6 8.0 0.00 0.00 0.00 81 1018.7
20210615190203 17 136 1.6 8.0 0.00 0.00 0.00 83 1018.6
20210615183703 17 136 1.6 4.8 0.00 0.00 0.00 79 1018.6
20210615183203 17 136 1.6 9.7 0.00 0.00 0.00 81 1018.5
20210615180703 17 136 3.2 12.9 0.00 0.00 0.00 79 1018.5
20210615180203 17 136 1.6 12.9 0.00 0.00 0.00 81 1018.5
20210615173703 17 136 1.6 4.8 0.00 0.00 0.00 80 1018.5
20210615173203 17 136 1.6 4.8 0.00 0.00 0.00 80 1018.5
20210615170703 18 136 0.0 1.6 0.00 0.00 0.00 86 1018.6
20210615170203 18 136 0.0 1.6 0.00 0.00 0.00 86 1018.5
20210615163703 18 136 0.0 4.8 0.00 0.00 0.00 86 1018.6
20210615163203 18 136 1.6 4.8 0.00 0.00 0.00 86 1018.5
20210615160703 17 136 0.0 3.2 0.00 0.00 0.00 88 1018.7
20210615160203 17 136 0.0 3.2 0.00 0.00 0.00 88 1018.8
20210615153704 17 136 0.0 3.2 0.00 0.00 0.00 90 1018.7
20210615153203 17 136 0.0 3.2 0.00 0.00 0.00 91 1018.8
20210615150704 17 136 0.0 4.8 0.00 0.00 0.00 88 1018.9
20210615150204 17 136 0.0 3.2 0.00 0.00 0.00 88 1019.0
20210615143703 17 136 0.0 4.8 0.00 0.00 0.00 89 1019.0
20210615143203 17 136 1.6 4.8 0.00 0.00 0.00 89 1018.9
20210615140704 17 136 3.2 8.0 0.00 0.00 0.00 87 1019.2
20210615140204 17 136 3.2 8.0 0.00 0.00 0.00 87 1019.2
20210615133701 17 136 1.6 3.2 0.00 0.00 0.00 81 1019.5
20210615133201 17 136 0.0 3.2 0.00 0.00 0.00 83 1019.6
20210615130700 17 136 0.0 3.2 0.00 0.00 0.00 85 1019.6
20210615130201 17 136 0.0 3.2 0.00 0.00 0.00 84 1019.6
20210615123701 18 136 0.0 3.2 0.00 0.00 0.00 84 1019.7
20210615123201 18 136 0.0 3.2 0.00 0.00 0.00 86 1019.6
20210615120701 17 136 1.6 4.8 0.00 0.00 0.00 83 1019.9
20210615120201 18 136 1.6 4.8 0.00 0.00 0.00 83 1019.8
20210615113701 18 136 0.0 3.2 0.00 0.00 0.00 83 1019.9
20210615113201 18 136 1.6 3.2 0.00 0.00 0.00 84 1019.9
20210615110701 18 136 1.6 4.8 0.00 0.00 0.00 84 1020.0
20210615110201 18 136 0.0 3.2 0.00 0.00 0.00 85 1020.0
20210615103701 18 104 3.2 4.8 0.00 0.00 0.00 83 1020.0
20210615103201 18 136 1.6 4.8 0.00 0.00 0.00 80 1020.0
20210615100701 17 136 1.6 4.8 0.00 0.00 0.00 83 1020.2
20210615100201 17 136 1.6 4.8 0.00 0.00 0.00 82 1020.2
20210615093701 16 136 1.6 3.2 0.00 0.00 0.00 87 1020.2
20210615093201 16 136 0.0 3.2 0.00 0.00 0.00 86 1020.1
20210615090702 16 136 1.6 1.6 0.00 0.00 0.00 85 1020.1
20210615090201 16 136 0.0 0.0 0.00 0.00 0.00 85 1020.2
20210615083701 16 136 1.6 4.8 0.00 0.00 0.00 86 1020.2
20210615083201 16 136 0.0 1.6 0.00 0.00 0.00 85 1020.1
20210615080702 15 136 0.0 1.6 0.00 0.00 0.00 87 1020.1
20210615080202 15 136 0.0 1.6 0.00 0.00 0.00 87 1020.2
20210615073702 14 136 1.6 4.8 0.00 0.00 0.00 90 1019.9
20210615073201 14 136 1.6 4.8 0.00 0.00 0.00 90 1019.8
20210615070702 13 136 0.0 0.0 0.00 0.00 0.00 92 1019.7
20210615070202 13 136 0.0 0.0 0.00 0.00 0.00 92 1019.7
20210615063701 13 136 0.0 3.2 0.00 0.00 0.00 91 1019.8
20210615063202 13 136 1.6 4.8 0.00 0.00 0.00 92 1019.6
20210615060702 13 136 0.0 1.6 0.00 0.00 0.00 91 1019.6
20210615060201 13 136 0.0 1.6 0.00 0.00 0.00 91 1019.6
20210615053701 13 136 0.0 0.0 0.00 0.00 0.00 90 1019.4
20210615053202 13 136 0.0 1.6 0.00 0.00 0.00 90 1019.4
20210615050702 13 136 0.0 1.6 0.00 0.00 0.00 89 1019.3
20210615050202 13 136 0.0 3.2 0.00 0.00 0.00 89 1019.3
20210615043702 13 136 0.0 1.6 0.00 0.00 0.00 90 1019.4
20210615043202 13 136 0.0 1.6 0.00 0.00 0.00 90 1019.5
20210615040702 13 136 0.0 3.2 0.00 0.00 0.00 91 1019.5
20210615040202 13 136 0.0 3.2 0.00 0.00 0.00 91 1019.5
20210615033702 13 136 0.0 1.6 0.00 0.00 0.00 91 1019.6
20210615033202 13 136 0.0 0.0 0.00 0.00 0.00 91 1019.6
20210615030703 13 136 1.6 3.2 0.00 0.00 0.00 91 1019.9
20210615030202 13 136 1.6 3.2 0.00 0.00 0.00 91 1019.9
20210615023702 13 136 0.0 0.0 0.00 0.00 0.00 90 1020.0
20210615023202 13 136 0.0 0.0 0.00 0.00 0.00 90 1020.0
20210615020702 13 136 0.0 8.0 0.00 0.00 0.00 91 1020.2
20210615020203 13 136 0.0 3.2 0.00 0.00 0.00 92 1020.2
20210615013702 13 136 0.0 0.0 0.00 0.00 0.00 93 1020.8
20210615013202 13 136 0.0 0.0 0.00 0.00 0.00 93 1021.0
20210615010702 13 136 0.0 0.0 0.00 0.00 0.00 93 1021.3
20210615010202 13 136 0.0 0.0 0.00 0.00 0.00 93 1021.3
20210615003703 13 136 0.0 0.0 0.00 0.00 0.00 93 1021.7
20210615003202 13 136 0.0 0.0 0.00 0.00 0.00 93 1021.8
20210615000702 13 136 0.0 0.0 0.00 0.00 0.00 91 1021.9
20210615000204 13 136 0.0 1.6 0.00 0.00 0.00 91 1021.8
20210614233702 13 136 0.0 0.0 0.00 0.00 0.00 90 1022.0
20210614233203 13 136 0.0 0.0 0.00 0.00 0.00 90 1022.0
20210614230702 13 136 0.0 3.2 0.00 0.00 0.00 90 1022.3
20210614230203 13 136 1.6 3.2 0.00 0.00 0.00 91 1022.4